| time (UTC) | temp F | wind direction | speed MPH | gust MPH | rain 1hr in | rain 24hr in | rain mn in | humidity % | barometer mb |
| 20260507011611 | 70 | 298 | 6.0 | 17.0 | 0.00 | 0.00 | 0.00 | 40 | 1018.6 |
| 20260507004531 | 71 | 285 | 9.0 | 18.0 | 0.00 | 0.00 | 0.00 | 39 | 1018.4 |
| 20260507001641 | 72 | 286 | 14.0 | 29.0 | 0.00 | 0.00 | 0.00 | 37 | 1018.0 |
| 20260507000034 | 74 | 286 | 12.0 | 22.0 | 0.00 | 0.00 | 0.00 | 36 | 1017.9 |
| 20260506234531 | 75 | 285 | 11.0 | 25.0 | 0.00 | 0.00 | 0.00 | 35 | 1017.9 |
| 20260506233036 | 76 | 284 | 10.0 | 17.0 | 0.00 | 0.00 | 0.00 | 34 | 1017.9 |
| 20260506231530 | 76 | 293 | 14.0 | 24.0 | 0.00 | 0.00 | 0.00 | 35 | 1017.9 |
| 20260506224535 | 76 | 290 | 14.0 | 28.0 | 0.00 | 0.00 | 0.00 | 36 | 1018.0 |
| 20260506223035 | 75 | 290 | 13.0 | 29.0 | 0.00 | 0.00 | 0.00 | 35 | 1018.3 |
| 20260506221610 | 77 | 282 | 15.0 | 25.0 | 0.00 | 0.00 | 0.00 | 33 | 1018.2 |
| 20260506214655 | 78 | 286 | 14.0 | 26.0 | 0.00 | 0.00 | 0.00 | 34 | 1017.9 |
| 20260506213030 | 78 | 282 | 12.0 | 24.0 | 0.00 | 0.00 | 0.00 | 34 | 1018.0 |
| 20260506211607 | 77 | 290 | 11.0 | 21.0 | 0.00 | 0.00 | 0.00 | 35 | 1018.2 |
| 20260506210032 | 76 | 292 | 12.0 | 23.0 | 0.00 | 0.00 | 0.00 | 36 | 1018.3 |
| 20260506204535 | 77 | 317 | 16.0 | 29.0 | 0.00 | 0.00 | 0.00 | 35 | 1018.3 |
| 20260506203032 | 78 | 303 | 12.0 | 24.0 | 0.00 | 0.00 | 0.00 | 38 | 1018.5 |
| 20260506200151 | 77 | 315 | 9.0 | 21.0 | 0.00 | 0.00 | 0.00 | 44 | 1018.7 |
| 20260506194608 | 76 | 40 | 3.0 | 11.0 | 0.00 | 0.00 | 0.00 | 48 | 1019.0 |
| 20260506191610 | 76 | 26 | 6.0 | 11.0 | 0.00 | 0.00 | 0.00 | 49 | 1019.1 |
| 20260506190037 | 76 | 46 | 7.0 | 14.0 | 0.00 | 0.00 | 0.00 | 49 | 1019.1 |
| 20260506184535 | 76 | 42 | 5.0 | 12.0 | 0.00 | 0.00 | 0.00 | 50 | 1019.1 |
| 20260506183034 | 74 | 34 | 6.0 | 11.0 | 0.00 | 0.00 | 0.00 | 51 | 1019.0 |
| 20260506181535 | 73 | 38 | 5.0 | 12.0 | 0.00 | 0.00 | 0.00 | 53 | 1019.2 |
| 20260506174529 | 70 | 47 | 4.0 | 10.0 | 0.00 | 0.00 | 0.00 | 53 | 1019.1 |
| 20260506173109 | 70 | 78 | 2.0 | 7.0 | 0.00 | 0.00 | 0.00 | 54 | 1019.1 |
| 20260506171531 | 69 | 88 | 2.0 | 9.0 | 0.00 | 0.00 | 0.00 | 55 | 1019.2 |
| 20260506170034 | 69 | 87 | 4.0 | 8.0 | 0.00 | 0.00 | 0.00 | 55 | 1019.5 |
| 20260506164534 | 69 | 94 | 3.0 | 7.0 | 0.00 | 0.00 | 0.00 | 55 | 1019.7 |
| 20260506163034 | 67 | 82 | 2.0 | 7.0 | 0.00 | 0.00 | 0.00 | 58 | 1019.7 |
| 20260506161610 | 66 | 50 | 3.0 | 6.0 | 0.00 | 0.00 | 0.00 | 62 | 1019.8 |
| 20260506160034 | 65 | 19 | 5.0 | 9.0 | 0.00 | 0.00 | 0.00 | 64 | 1019.7 |
| 20260506154529 | 65 | 65 | 5.0 | 8.0 | 0.00 | 0.00 | 0.00 | 64 | 1019.4 |
| 20260506153029 | 64 | 65 | 4.0 | 7.0 | 0.00 | 0.00 | 0.00 | 66 | 1019.6 |
| 20260506151534 | 63 | 106 | 2.0 | 6.0 | 0.00 | 0.00 | 0.00 | 70 | 1019.7 |
| 20260506150032 | 61 | 247 | 0.0 | 2.0 | 0.00 | 0.00 | 0.00 | 76 | 1019.7 |
| 20260506144529 | 59 | 263 | 0.0 | 0.0 | 0.00 | 0.00 | 0.00 | 82 | 1019.6 |
| 20260506143107 | 56 | 292 | 0.0 | 0.0 | 0.00 | 0.00 | 0.00 | 87 | 1019.4 |
| 20260506141531 | 54 | 267 | 1.0 | 4.0 | 0.00 | 0.00 | 0.00 | 90 | 1019.3 |
| 20260506140037 | 52 | 181 | 0.0 | 3.0 | 0.00 | 0.00 | 0.00 | 91 | 1019.2 |
| 20260506134530 | 48 | 193 | 0.0 | 3.0 | 0.00 | 0.00 | 0.00 | 91 | 1019.2 |
| 20260506133030 | 46 | 260 | 2.0 | 6.0 | 0.00 | 0.00 | 0.00 | 91 | 1019.0 |
| 20260506131537 | 46 | 255 | 0.0 | 4.0 | 0.00 | 0.00 | 0.00 | 91 | 1018.8 |
| 20260506130031 | 46 | 254 | 0.0 | 3.0 | 0.00 | 0.00 | 0.00 | 91 | 1018.7 |
| 20260506124535 | 47 | 261 | 1.0 | 4.0 | 0.00 | 0.00 | 0.00 | 91 | 1018.5 |
| 20260506123032 | 47 | 183 | 2.0 | 5.0 | 0.00 | 0.00 | 0.00 | 91 | 1018.4 |
| 20260506121531 | 47 | 157 | 0.0 | 3.0 | 0.00 | 0.00 | 0.00 | 91 | 1018.4 |
| 20260506120037 | 47 | 157 | 0.0 | 3.0 | 0.00 | 0.00 | 0.00 | 91 | 1018.3 |
| 20260506114530 | 47 | 157 | 2.0 | 4.0 | 0.00 | 0.00 | 0.00 | 90 | 1018.1 |
| 20260506113035 | 47 | 157 | 0.0 | 3.0 | 0.00 | 0.00 | 0.00 | 90 | 1018.1 |
| 20260506111610 | 47 | 247 | 0.0 | 0.0 | 0.00 | 0.00 | 0.00 | 88 | 1017.9 |
| 20260506104536 | 48 | 247 | 1.0 | 3.0 | 0.00 | 0.00 | 0.00 | 88 | 1017.7 |
| 20260506103036 | 48 | 243 | 2.0 | 3.0 | 0.00 | 0.00 | 0.00 | 88 | 1017.6 |
| 20260506100053 | 49 | 161 | 1.0 | 3.0 | 0.00 | 0.00 | 0.00 | 88 | 1017.6 |
| 20260506093108 | 49 | 157 | 3.0 | 4.0 | 0.00 | 0.00 | 0.00 | 88 | 1017.6 |
| 20260506091534 | 49 | 157 | 1.0 | 4.0 | 0.00 | 0.00 | 0.00 | 88 | 1017.6 |
| 20260506090030 | 49 | 157 | 1.0 | 3.0 | 0.00 | 0.00 | 0.00 | 88 | 1017.5 |
| 20260506084530 | 49 | 167 | 1.0 | 3.0 | 0.00 | 0.00 | 0.00 | 87 | 1017.3 |
| 20260506071532 | 52 | 276 | 2.0 | 3.0 | 0.00 | 0.00 | 0.00 | 84 | 1016.8 |
| 20260506061531 | 54 | 157 | 1.0 | 3.0 | 0.00 | 0.00 | 0.00 | 80 | 1016.3 |
| 20260506044531 | 58 | 157 | 1.0 | 3.0 | 0.00 | 0.00 | 0.00 | 73 | 1015.7 |
| 20260506043107 | 59 | 235 | 0.0 | 3.0 | 0.00 | 0.00 | 0.00 | 71 | 1015.5 |
| 20260506041535 | 60 | 256 | 0.0 | 2.0 | 0.00 | 0.00 | 0.00 | 69 | 1015.3 |
| 20260506040043 | 61 | 247 | 1.0 | 3.0 | 0.00 | 0.00 | 0.00 | 67 | 1015.2 |
| 20260506031530 | 65 | 168 | 0.0 | 3.0 | 0.00 | 0.00 | 0.00 | 62 | 1014.5 |
| 20260506030037 | 68 | 73 | 5.0 | 9.0 | 0.00 | 0.00 | 0.00 | 59 | 1014.2 |
| 20260506024649 | 69 | 71 | 5.0 | 8.0 | 0.00 | 0.00 | 0.00 | 57 | 1014.1 |
| 20260506021535 | 70 | 75 | 5.0 | 8.0 | 0.00 | 0.00 | 0.00 | 55 | 1014.0 |
| 20260506013032 | 74 | 32 | 5.0 | 10.0 | 0.00 | 0.00 | 0.00 | 50 | 1013.8 |